Regional Weather Roundup
Issued by NWS

Home | Current Version | Previous Version | Graphics & Text | Print | Product List | Glossary Off
Versions: 1 2 3 4 5 6 7 8 9 10 11 12 13 14 15 16 17 18 19 20 21 22 23 24 25 26 27 28 29 30 31 32 33 34 35 36 37 38 39 40 41 42 43 44 45 46 47 48 49 50

000
ASUS43 KMKX 230511
RWRWI

WISCONSIN REGIONAL WEATHER ROUNDUP
NATIONAL WEATHER SERVICE MILWAUKEE/SULLIVAN WI
1200 AM CDT WED APR 23 2014

NOTE: "FAIR" INDICATES FEW OR NO CLOUDS BELOW 12,000 FEET WITH NO
SIGNIFICANT WEATHER AND/OR OBSTRUCTIONS TO VISIBILITY.

WIZ001-002-006>008-014>016-023>028-230600-
NORTHWEST WISCONSIN

CITY           SKY/WX    TMP DP  RH WIND       PRES   REMARKS
SUPERIOR ARPT  CLEAR     31  28  89 CALM      30.11R
ASHLAND        CLEAR     30  25  81 N5        30.12S WCI  25
HAYWARD        CLEAR     28  22  78 CALM      30.10S
SIREN          CLEAR     31  23  74 CALM      30.10S
RICE LAKE      CLEAR     33  28  80 CALM      30.12S
LADYSMITH      CLEAR     34  29  82 CALM      30.12S
EAU CLAIRE     CLEAR     34  25  69 NE3       30.11R
MENOMONIE      CLEAR     39  28  64 CALM      30.11R
NEW RICHMOND   CLEAR     38  29  70 E3        30.10S
OSCEOLA        PTCLDY    35  27  73 SE3       30.12S
$$

WIZ003>005-009-010-017-018-230600-
NORTH CENTRAL WISCONSIN

CITY           SKY/WX    TMP DP  RH WIND       PRES   REMARKS
WOODRUFF       CLEAR     25  12  58 CALM      30.10S
RHINELANDER    CLEAR     26  22  84 CALM      30.10R
EAGLE RIVER    CLEAR     26  26 100 CALM      30.10R
LAND O LAKES   CLEAR     25  24  95 CALM      30.10S
PHILLIPS       CLEAR     29  27  92 CALM      30.10R
TOMAHAWK       CLEAR     27  23  87 CALM      30.11R
MEDFORD        CLEAR     32  25  76 CALM      30.10S
MERRILL        CLEAR     27  25  90 CALM      30.11R
$$

WIZ029-030-035-036-043>047-230600-
CENTRAL WISCONSIN

CITY           SKY/WX    TMP DP  RH WIND       PRES   REMARKS
WAUSAU         CLEAR     35  26  69 CALM      30.10R
MOSINEE        CLEAR     37  27  65 CALM      30.12R
MARSHFIELD     CLEAR     38  26  62 NE5       30.11R WCI  34
STEVENS POINT  CLEAR     30  24  79 CALM      30.13R
WAUPACA        CLEAR     37  28  70 NW3       30.13R
WAUTOMA        CLEAR     35  28  76 CALM      30.12S
WISC RAPIDS    CLEAR     34  25  69 CALM      30.13R
CAMP DOUGLAS   CLEAR     37  25  61 CALM      30.12R
$$

WIZ011>013-019>022-031-037>040-048>050-230600-
NORTHEAST WISCONSIN

CITY           SKY/WX    TMP DP  RH WIND       PRES   REMARKS
ANTIGO         CLEAR     31  27  83 CALM      30.10R
STURGEON BAY   CLEAR     32  25  74 MISG      30.10R
GREEN BAY      CLEAR     36  28  73 N5        30.12R WCI  32
MANITOWOC      CLEAR     36  28  73 NW3       30.11R
APPLETON       CLEAR     34  28  80 N3        30.12R
CLINTONVILLE   CLEAR     36  28  75 CALM      30.11R
OSHKOSH        CLEAR     36  26  67 N5        30.10R WCI  32
$$

WIZ032>034-041-042-053>061-230600-
SOUTHWEST WISCONSIN

CITY           SKY/WX    TMP DP  RH WIND       PRES   REMARKS
LA CROSSE      CLEAR     41  26  55 CALM      30.11R
SPARTA         CLEAR     32  27  80 CALM      30.12S
VIROQUA        FAIR      39  27  62 E6        30.10R WCI  34
BOSCOBEL       CLEAR     38  28  67 NE3       30.11R
PRAIRIE DU CHI CLEAR     40  31  70 CALM      30.09S
PLATTEVILLE    FAIR      43  26  51 NE6       30.09R
$$

WIZ056-057-062-063-064-067-068-230600-
SOUTH CENTRAL WISCONSIN

CITY           SKY/WX    TMP DP  RH WIND       PRES   REMARKS
BARABOO/DELLS  CLEAR     39  26  59 NE5       30.11R
LONE ROCK      CLEAR     45  27  49 NE9       30.10R
WATERTOWN      CLEAR     40  29  64 NE5       30.09S
MADISON        CLEAR     41  27  57 NE7       30.12R
MIDDLETON      FAIR      38  28  65 NE3       30.11R
MONROE         CLEAR     43  28  55 NE6       30.09R
JANESVILLE     CLEAR     37  32  81 CALM      30.09R
$$

WIZ051-052-058>065-066-070>072-230600-
SOUTHEAST WISCONSIN

CITY           SKY/WX    TMP DP  RH WIND       PRES   REMARKS
MILWAUKEE      PTCLDY    35  30  82 NE5       30.12R WCI  31
WAUKESHA       CLEAR     34  30  86 NE5       30.11R WCI  30
MILWAUKEE/TIMM CLEAR     36  28  75 NE5       30.12R WCI  32
RACINE         CLEAR     35  30  82 NE9       30.12R WCI  28
BURLINGTON     CLEAR     31  27  86 CALM      30.10R
KENOSHA        CLEAR     33  28  81 E8        30.10R WCI  26
FOND DU LAC    CLEAR     38  29  70 N3        30.11R
SHEBOYGAN      CLEAR     33  29  85 CALM      30.11R
WEST BEND      CLEAR     37  27  65 E3        30.10R
JUNEAU         CLEAR     39  26  61 N6        30.11S WCI  35
$$

LSZ147-162-230600-
LAKE SUPERIOR

STATION/POSITION TIME  TEMP    WIND        PRES    WAVE
                       AIR SEA DIR/SP/G            HT/PER
                 (UTC) (F)     (DEG/KT/KT) (MB)    (FT/S)
DEVILS ISLAND    0500   37     140/  9/ 10 1020.7R
PORT WING        0440   31     140/  2/  3 1019.6R
SAXON HARBOR     0400             CALM     1019.6R
$$

LMZ867-665-643>646-230600-
LAKE MICHIGAN

STATION/POSITION TIME  TEMP    WIND        PRES    WAVE
                       AIR SEA DIR/SP/G            HT/PER
                 (UTC) (F)     (DEG/KT/KT) (MB)    (FT/S)
NORTHPORT PIER   0400   32     310/  8/ 10 1019.0R
SISTER BAY       0409   32        CALM       N/A
KEWAUNEE LAKESHO 0400   36     340/  5/  7 1019.7R
SHEBOYGAN LAKESH 0500   37      40/  9/ 10 1020.4R
PORT WASHINGTON  0440   38      50/  8/ 11 1020.3R
MILWAUKEE LAKESH 0400   37      40/ 11/ 13   N/A
KENOSHA   LAKESH 0500   38      40/ 11/ 14   N/A
$$

TC  - TEMPERATURE IN CELSIUS
VSB - VISIBILITY IN STATUTE MILES
WCI - WIND CHILL INDEX
HX  - HEAT INDEX




USA.gov is the U.S. government's official web portal to all federal, state and local government web resources and services.